Temperature
16 16 16 16 16 17 17 17 16 16 16 16 16 16 16 16 16 15 15 15 15 15 15 15 15 15 15 15 15 15 15 15 15 15 15 15 15 15 15 15 15 15 15
16 16 16 16 16 17 17 17 16 16 16 16 16 16 16 16 15 15 15 15 15 15 15 15 15 15 15 15 15 15 15 15 15 15 15 15 15 15 15 15 15 15 15
16 16 16 16 16 16 16 16 16 16 16 16 16 16 16 15 15 15 15 15 15 15 15 15 15 15 15 15 15 15 15 15 15 14 14 14 14 14 14 15 15 15 15
16 16 16 16 16 16 16 16 16 16 16 16 16 15 15 15 15 15 15 15 15 15 15 15 15 15 15 15 15 15 15 14 14 14 14 14 14 14 14 14 14 15 15
15 15 15 16 16 16 16 16 16 16 16 16 15 15 15 15 15 15 15 15 15 15 15 15 15 15 15 15 14 14 14 14 14 14 14 14 14 14 14 14 14 14 14
15 15 15 15 16 16 16 16 16 16 15 15 15 15 15 15 15 15 15 15 15 15 15 15 15 15 14 14 14 14 14 14 14 14 14 13 14 14 14 14 14 14 14
15 15 15 15 15 15 15 15 15 15 15 15 15 15 15 15 15 15 15 15 15 15 15 15 15 14 14 14 14 14 14 14 13 13 13 13 13 13 14 14 14 14 14
15 14 15 15 15 15 15 15 15 15 15 15 15 15 15 15 15 15 15 15 15 15 15 15 14 14 14 14 14 14 13 13 13 13 13 13 13 13 13 13 14 14 14
14 14 14 15 15 15 15 15 15 15 15 15 15 15 14 15 15 14 15 15 15 15 15 14 14 14 14 14 14 13 13 13 13 13 13 13 13 13 13 13 13 13 13
14 14 14 14 14 15 14 14 15 15 15 15 15 14 14 14 14 14 14 14 14 14 14 14 14 14 14 13 13 13 13 13 13 13 13 13 13 13 13 13 13 13 13
13 13 13 14 14 14 14 14 14 14 14 14 14 14 14 14 14 14 14 14 14 14 14 14 14 14 13 13 13 13 13 13 12 12 12 12 12 12 12 12 13 13 13
13 13 13 13 14 14 14 14 14 14 14 14 14 14 14 14 14 14 14 14 14 14 13 13 13 13 13 13 13 12 12 12 12 12 12 12 12 12 12 12 12 12 12
13 13 13 13 13 14 14 14 14 14 14 14 14 14 14 14 14 14 14 13 13 13 13 13 13 13 13 13 12 12 12 12 12 12 12 12 12 12 12 12 12 12 12
12 12 12 13 13 13 13 13 14 13 13 13 13 13 13 13 13 13 13 13 13 13 13 13 13 13 12 12 12 12 12 12 11 11 11 11 11 11 11 11 11 11 11
12 12 12 12 13 13 13 13 13 13 13 13 13 13 13 13 13 13 13 13 13 13 13 12 12 12 12 12 12 11 11 11 11 11 11 11 11 11 11 11 11 11 11
12 12 12 12 12 12 13 13 13 13 13 13 13 13 13 13 13 13 13 12 12 12 12 12 12 12 12 12 11 11 11 11 11 11 11 11 11 11 11 11 11 10 10
12 12 12 12 12 12 12 12 12 12 12 12 12 12 12 12 12 12 12 12 12 12 12 12 12 11 11 11 11 11 11 10 10 10 10 10 10 10 10 10 10 10 10
11 11 11 11 11 11 12 12 12 12 12 12 12 12 12 12 12 12 12 12 12 11 11 11 11 11 11 11 11 11 10 10 10 10 10 10 10 10 10 10 10 10 10
11 11 11 11 11 11 11 11 11 11 11 11 11 11 11 11 11 11 11 11 11 11 11 11 11 11 11 11 11 10 10 10 10 10 10 10 10 9 9 9 9 9 9
11 11 11 11 11 11 11 11 11 11 11 11 11 11 11 11 11 11 11 11 11 11 11 11 11 11 11 10 10 10 10 10 9 9 9 9 9 9 9 9 9 9 9
10 10 10 10 10 11 11 11 11 11 11 11 11 11 11 10 11 11 11 11 11 11 11 10 10 10 10 10 10 10 9 9 9 9 9 9 9 9 9 9 9 8 8
10 10 10 10 10 10 11 10 10 10 10 10 10 10 10 10 10 10 10 10 10 10 10 10 10 10 10 10 10 9 9 9 9 9 8 8 8 8 8 8 8 8 8
10 10 10 10 10 10 10 10 10 10 10 10 10 10 10 10 10 10 10 10 10 10 10 10 10 10 10 9 9 9 9 8 8 8 8 8 8 8 8 8 8 8 7
10 10 10 9 10 10 9 10 10 10 10 10 10 10 9 9 9 9 9 9 9 9 9 9 9 9 9 9 9 9 8 8 8 7 8 8 8 7 7 7 7 7 7
10 10 10 9 9 9 9 9 9 9 9 9 9 9 9 9 9 9 9 9 9 9 9 9 9 9 9 8 8 8 8 8 7 7 7 7 7 7 7 7 7 6 6
9 9 9 9 9 9 9 9 9 9 9 9 9 9 9 9 9 9 9 9 9 9 9 8 8 8 8 8 8 8 7 7 7 6 6 6 7 7 7 6 6 6 6
Wind_Speed
5 9 13 13 14 14 14 13 12 12 12 12 12 12 12 12 11 11 10 10 9 9 9 10 10 10 10 10 10 9 9 9 9 8 8 7 7 7 8 8 9 8 8
8 11 14 14 14 14 14 13 13 12 12 12 11 11 11 11 10 10 10 9 9 9 9 9 9 9 9 9 8 8 8 8 8 8 7 6 5 5 6 7 7 7 8
10 12 14 14 14 14 14 14 13 12 12 12 11 11 10 10 10 9 9 9 8 8 8 8 8 8 8 8 7 7 7 7 8 8 7 5 4 4 5 5 5 6 6
10 12 14 15 14 14 14 14 13 12 12 11 11 10 10 10 9 9 9 8 8 8 8 8 8 7 7 6 6 6 6 6 7 7 6 5 4 4 4 4 4 4 4
8 11 14 15 14 13 14 14 13 12 12 11 11 10 10 10 9 9 8 8 8 8 8 8 8 7 7 6 6 6 6 7 7 7 6 5 5 4 4 4 4 4 3
7 10 13 14 14 14 13 14 13 12 12 11 10 10 10 9 9 9 8 8 8 8 8 7 7 6 6 6 6 6 7 8 7 7 6 5 4 5 5 5 4 4 3
7 8 12 14 14 13 13 13 13 12 12 11 10 10 9 9 9 9 9 8 8 8 8 7 6 6 6 6 6 7 7 7 6 6 5 4 4 5 5 5 5 5 4
8 8 10 13 13 13 13 12 12 12 11 10 10 9 9 9 9 9 8 8 8 7 7 7 6 5 5 6 6 7 7 7 6 5 4 3 4 5 6 6 5 5 5
7 7 7 10 12 12 12 12 11 11 10 10 9 9 9 9 8 8 8 8 7 6 6 6 5 5 5 5 5 6 7 8 7 5 4 3 4 6 6 7 7 6 7
5 6 6 7 9 10 11 12 11 10 9 9 8 8 8 8 8 8 7 7 6 6 5 5 5 4 4 4 5 6 7 8 7 5 4 4 5 6 7 7 7 7 7
4 4 5 5 7 9 9 10 10 9 8 7 7 8 8 7 6 6 6 6 5 5 5 5 4 4 4 5 5 6 7 7 7 5 4 5 5 6 7 7 7 7 7
4 4 4 5 6 7 7 8 8 7 7 7 7 8 7 6 6 5 5 5 5 5 5 5 5 5 5 5 5 6 6 7 6 5 5 5 6 6 7 7 7 7 7
5 5 4 4 6 6 6 6 6 7 7 7 8 8 8 7 7 7 6 6 6 5 6 5 6 6 5 5 5 6 6 6 6 5 6 7 6 6 7 7 8 7 7
5 5 4 4 5 6 6 6 6 5 5 6 7 7 7 6 5 5 5 5 5 5 5 5 4 5 5 6 5 5 6 5 5 5 6 7 7 7 7 8 8 7 7
6 5 3 4 5 5 5 5 6 5 5 6 7 7 7 5 3 4 4 4 4 4 4 4 4 4 4 4 5 5 5 6 7 6 6 7 8 7 7 7 7 8 7
6 6 4 4 5 5 4 4 5 6 6 6 6 6 7 6 5 4 3 3 3 4 4 4 4 3 3 3 3 4 5 5 6 6 6 6 8 8 8 8 8 8 8
6 6 5 4 4 5 4 4 5 5 6 5 5 6 6 6 6 5 3 2 3 3 4 4 4 4 3 3 3 3 4 5 5 6 6 7 7 8 8 8 8 8 8
6 6 5 5 5 4 4 4 5 5 6 5 5 5 6 6 6 5 3 2 3 4 4 2 2 3 3 3 2 2 2 4 5 5 6 6 7 7 7 8 8 8 8
7 6 5 5 5 5 4 4 4 5 4 5 5 5 5 6 6 5 4 3 4 4 3 2 2 2 2 2 1 2 2 2 3 4 4 5 6 6 6 7 7 8 8
6 6 6 5 4 5 4 3 3 3 3 4 4 4 4 5 5 5 3 4 4 3 2 2 2 2 1 1 2 2 2 1 2 2 3 4 4 5 5 5 6 6 6
5 6 6 5 4 4 3 3 2 2 1 2 2 4 4 4 5 5 3 3 3 3 2 2 2 2 2 2 2 2 3 3 2 1 2 2 2 3 4 4 4 4 5
6 5 5 5 4 4 3 3 2 2 1 1 1 2 3 4 4 4 3 2 2 2 2 2 2 2 1 2 2 2 1 2 2 1 1 1 1 2 2 2 2 3 3
5 5 6 5 5 4 4 3 4 3 2 1 1 1 1 3 4 4 4 3 2 2 2 2 2 2 1 1 1 2 2 2 2 2 1 0 1 0 1 0 0 0 1
5 4 5 5 5 4 5 4 5 4 2 2 2 1 0 2 3 3 3 3 3 2 2 2 2 2 3 1 0 1 1 2 1 2 3 2 2 2 2 1 2 2 1
5 5 4 5 4 4 4 5 5 3 2 2 2 2 1 1 1 3 3 3 2 2 3 2 2 2 2 2 1 1 1 1 1 2 2 3 3 3 3 3 3 3 3
4 4 4 5 4 4 5 5 5 5 4 3 2 2 1 1 0 1 3 3 3 2 2 3 2 2 2 2 1 1 2 1 1 2 2 3 3 4 3 2 2 3 4
Wind_Direction
167 165 153 145 139 135 131 127 123 122 118 114 110 106 102 101 101 99 97 96 94 93 90 86 84 83 81 78 75 73 72 66 62 59 59 63 70 77 77 72 69 66 68
158 158 150 145 140 137 133 129 125 122 121 118 114 110 106 103 101 100 97 94 93 92 91 87 83 81 80 79 78 74 71 65 57 50 48 54 67 82 87 82 76 71 70
147 150 147 143 139 137 134 131 126 122 122 120 116 112 108 104 103 100 97 95 94 93 92 89 85 81 79 78 78 74 68 61 54 46 46 52 66 86 93 89 81 74 70
141 144 144 140 137 136 135 133 129 126 124 122 118 114 112 108 103 102 98 96 94 92 92 90 87 83 80 77 73 68 62 54 44 38 40 40 60 86 88 91 86 78 68
128 137 141 139 136 134 135 133 130 128 125 123 120 116 112 110 105 101 98 95 93 93 92 91 87 83 78 73 66 59 52 41 40 45 51 54 61 75 81 81 80 75 64
122 131 140 138 136 132 132 132 131 128 125 122 122 118 114 110 105 102 97 94 94 94 93 90 87 82 75 69 61 54 45 42 55 55 57 57 53 64 77 76 67 64 56
128 128 137 137 135 132 129 129 129 128 126 123 123 120 117 111 106 101 96 93 92 91 91 90 87 81 73 65 57 50 43 47 65 59 55 52 48 64 67 62 56 49 38
131 128 136 137 134 131 127 128 127 128 128 126 125 126 122 116 111 104 99 95 90 87 87 83 84 77 72 59 56 51 46 50 60 57 55 49 48 63 63 52 49 46 43
121 118 121 132 133 129 126 125 125 126 130 130 128 128 124 117 113 107 103 99 94 90 87 82 78 75 64 57 55 53 51 51 55 55 57 45 54 62 60 55 54 52 49
110 117 117 123 128 127 128 129 126 128 129 133 133 130 127 123 117 110 106 100 94 89 83 76 70 70 63 57 57 55 52 53 54 59 52 54 62 63 62 58 54 54 54
116 122 129 129 132 133 133 131 126 124 123 119 122 125 122 118 117 110 104 99 93 83 73 62 57 56 61 56 59 58 56 55 59 58 54 60 64 65 62 57 53 52 55
146 144 140 143 142 136 131 124 116 113 110 102 103 116 116 112 111 103 96 90 88 79 64 52 51 48 54 54 58 60 60 62 62 55 50 59 65 66 59 53 51 50 52
153 142 140 143 145 134 123 123 113 107 102 96 96 107 109 100 94 86 76 70 68 64 51 42 44 46 60 69 69 68 67 70 68 59 55 63 63 64 60 55 52 50 53
139 136 147 138 133 131 127 125 120 113 106 99 97 103 104 92 86 83 76 70 63 56 49 44 45 51 64 69 74 73 71 76 73 69 62 62 59 58 57 54 50 51 53
136 133 134 128 127 133 131 132 123 120 117 112 104 101 107 102 107 94 78 68 56 54 57 50 49 52 56 60 68 79 81 84 81 77 66 61 58 53 50 51 52 50 49
148 144 136 132 133 126 124 124 126 126 125 114 108 107 108 107 109 103 84 64 48 50 63 69 65 61 53 63 64 75 93 97 90 84 75 65 59 55 51 47 46 46 45
156 149 145 141 130 122 121 122 122 127 126 116 114 114 109 107 110 108 101 77 44 57 68 69 61 62 59 57 55 65 88 92 91 87 82 76 69 61 57 51 44 42 39
151 150 151 145 132 126 122 120 124 129 123 119 117 114 111 109 114 108 104 84 60 65 62 73 66 64 51 49 49 49 76 91 92 90 86 82 79 69 60 55 49 44 40
151 151 148 137 140 136 124 118 118 117 115 119 116 112 112 111 114 111 109 90 82 69 57 73 73 76 59 39 42 63 73 95 100 97 87 85 85 81 71 62 55 49 41
149 151 150 141 151 137 120 104 94 94 96 109 115 118 117 113 116 107 109 102 96 93 72 74 84 64 71 49 48 46 41 59 86 96 101 94 91 87 80 71 60 50 40
148 151 156 149 163 148 138 134 131 134 118 101 122 125 123 120 116 106 109 100 99 112 116 106 99 78 44 42 63 38 19 30 60 72 86 92 85 83 86 81 67 56 37
161 160 159 158 162 164 158 149 144 133 135 131 109 112 134 130 123 121 113 119 108 109 96 93 90 102 52 52 98 102 22 349 353 17 28 92 67 58 68 78 76 65 49
168 174 174 170 169 166 147 125 106 88 75 82 83 70 150 144 130 128 132 130 123 124 135 129 119 119 122 21 69 127 136 224 297 317 310 333 344 299 289 307 146 79 58
182 183 169 166 164 163 151 151 150 153 165 189 179 171 155 158 146 146 147 140 141 142 147 157 141 141 144 153 18 50 141 161 169 304 315 317 311 281 276 261 243 241 243
174 174 166 163 164 163 159 162 155 151 156 141 124 141 168 256 157 159 161 152 154 154 164 160 151 151 153 164 165 145 69 57 128 178 275 306 316 289 272 255 236 232 234
169 165 163 167 173 171 165 165 165 164 159 155 169 180 198 245 246 205 186 177 179 180 180 178 168 161 162 166 168 169 169 173 195 181 237 276 288 289 286 266 238 231 233
Height
1525 1527 1529 1531 1533 1534 1535 1536 1537 1538 1539 1539 1539 1540 1540 1540 1541 1541 1541 1541 1541 1541 1541 1541 1541 1541 1541 1541 1541 1541 1541 1541 1541 1540 1540 1540 1540 1540 1540 1540 1540 1539 1539
1523 1526 1528 1530 1532 1533 1535 1536 1537 1538 1538 1539 1540 1540 1540 1540 1541 1541 1541 1541 1541 1541 1541 1541 1541 1541 1541 1541 1541 1541 1541 1541 1541 1541 1541 1541 1541 1541 1540 1540 1540 1540 1540
1522 1525 1527 1529 1531 1533 1534 1535 1536 1537 1538 1539 1539 1540 1540 1540 1540 1541 1541 1541 1541 1541 1541 1541 1541 1541 1541 1541 1540 1540 1541 1541 1541 1541 1541 1541 1541 1541 1541 1541 1541 1540 1540
1522 1524 1526 1528 1530 1532 1533 1535 1536 1537 1538 1539 1539 1540 1540 1540 1540 1540 1541 1541 1541 1541 1541 1541 1541 1541 1541 1541 1540 1540 1540 1541 1541 1541 1541 1541 1541 1541 1541 1541 1541 1540 1540
1522 1524 1526 1528 1529 1531 1532 1534 1535 1536 1537 1538 1539 1539 1540 1540 1540 1540 1540 1540 1541 1541 1541 1541 1541 1541 1541 1540 1540 1540 1540 1540 1541 1541 1541 1541 1541 1541 1541 1541 1541 1540 1540
1522 1524 1526 1527 1529 1530 1532 1533 1534 1536 1537 1538 1538 1539 1539 1539 1540 1540 1540 1540 1540 1540 1540 1541 1541 1540 1540 1540 1540 1540 1540 1540 1540 1540 1541 1541 1541 1541 1541 1541 1540 1540 1540
1521 1523 1525 1527 1528 1530 1531 1532 1534 1535 1536 1537 1538 1538 1539 1539 1539 1539 1540 1540 1540 1540 1540 1540 1540 1540 1540 1540 1540 1540 1540 1540 1540 1540 1540 1541 1541 1541 1540 1540 1540 1540 1540
1520 1522 1524 1526 1527 1529 1530 1531 1533 1534 1536 1536 1537 1538 1538 1539 1539 1539 1539 1539 1540 1540 1540 1540 1540 1540 1540 1539 1539 1540 1540 1540 1540 1540 1540 1540 1540 1540 1540 1539 1539 1539 1539
1519 1521 1522 1524 1526 1528 1529 1531 1532 1533 1535 1536 1536 1537 1538 1538 1538 1538 1539 1539 1539 1539 1539 1539 1539 1539 1539 1539 1539 1539 1539 1539 1539 1539 1539 1539 1540 1539 1539 1539 1539 1538 1538
1518 1520 1521 1523 1525 1527 1528 1530 1531 1532 1533 1535 1535 1536 1537 1537 1538 1538 1538 1538 1538 1538 1538 1538 1539 1538 1539 1539 1539 1539 1539 1539 1539 1539 1539 1539 1539 1539 1538 1538 1538 1537 1537
1516 1518 1520 1522 1523 1525 1527 1528 1529 1531 1532 1533 1534 1535 1536 1537 1537 1537 1537 1537 1538 1538 1538 1538 1538 1538 1538 1538 1538 1538 1538 1538 1538 1538 1538 1538 1538 1538 1538 1537 1537 1536 1536
1514 1517 1518 1519 1521 1523 1525 1526 1528 1529 1531 1532 1533 1534 1535 1535 1536 1536 1536 1537 1537 1537 1537 1537 1537 1537 1537 1537 1537 1537 1538 1538 1538 1538 1538 1538 1538 1537 1537 1537 1536 1536 1535
1512 1515 1517 1518 1519 1521 1523 1525 1526 1528 1529 1530 1531 1533 1533 1534 1535 1535 1535 1536 1536 1536 1536 1536 1537 1536 1537 1537 1537 1537 1537 1537 1537 1537 1537 1537 1537 1537 1536 1536 1535 1535 1534
1511 1514 1516 1517 1517 1520 1522 1523 1524 1526 1528 1529 1530 1531 1532 1533 1533 1534 1534 1535 1535 1535 1535 1536 1536 1536 1536 1536 1536 1536 1537 1537 1537 1537 1537 1537 1536 1536 1535 1535 1534 1534 1533
1510 1512 1514 1516 1517 1519 1520 1522 1523 1524 1526 1527 1528 1529 1530 1531 1532 1532 1533 1533 1534 1534 1534 1535 1535 1535 1535 1535 1536 1536 1536 1536 1536 1536 1536 1536 1535 1535 1535 1534 1534 1533 1532
1509 1511 1513 1515 1516 1517 1519 1520 1521 1523 1524 1525 1526 1528 1529 1529 1530 1531 1531 1532 1532 1533 1533 1533 1534 1534 1534 1534 1534 1535 1535 1535 1535 1535 1535 1535 1534 1534 1533 1533 1533 1532 1531
1508 1510 1512 1513 1515 1516 1518 1519 1520 1521 1523 1523 1524 1526 1527 1528 1529 1529 1530 1531 1531 1532 1532 1532 1533 1533 1533 1533 1533 1534 1534 1534 1534 1534 1534 1533 1533 1533 1532 1532 1531 1531 1530
1507 1508 1511 1512 1514 1515 1516 1518 1519 1520 1520 1521 1523 1524 1525 1526 1527 1528 1528 1529 1530 1530 1531 1531 1531 1531 1532 1532 1532 1532 1533 1533 1533 1533 1533 1532 1532 1531 1531 1531 1530 1529 1528
1506 1507 1509 1511 1512 1514 1516 1517 1518 1519 1519 1520 1521 1522 1523 1524 1525 1526 1527 1528 1528 1529 1530 1530 1530 1530 1530 1531 1531 1531 1531 1531 1531 1531 1531 1531 1531 1530 1530 1529 1529 1528 1527
1505 1506 1508 1509 1511 1512 1514 1516 1516 1517 1518 1518 1519 1520 1521 1522 1523 1524 1525 1526 1527 1527 1528 1528 1529 1529 1529 1529 1529 1530 1530 1530 1530 1530 1530 1530 1530 1529 1528 1528 1527 1526 1525
1504 1505 1507 1508 1510 1511 1512 1513 1514 1515 1516 1517 1518 1519 1520 1521 1521 1522 1523 1524 1525 1526 1526 1527 1527 1527 1528 1528 1528 1528 1528 1528 1528 1529 1529 1528 1528 1527 1527 1526 1525 1524 1523
1502 1504 1505 1506 1508 1509 1510 1512 1513 1514 1514 1515 1516 1517 1518 1519 1520 1520 1521 1522 1523 1524 1524 1524 1525 1525 1526 1526 1526 1526 1526 1527 1526 1527 1527 1527 1526 1526 1525 1524 1523 1522 1521
1500 1502 1504 1505 1507 1508 1509 1510 1511 1512 1512 1513 1514 1515 1516 1517 1518 1518 1519 1520 1521 1522 1522 1522 1523 1523 1523 1524 1524 1524 1524 1524 1524 1524 1524 1524 1524 1523 1523 1522 1521 1520 1519
1500 1502 1502 1504 1506 1506 1507 1508 1509 1509 1510 1511 1513 1514 1514 1515 1516 1517 1518 1518 1519 1520 1520 1521 1521 1521 1521 1521 1522 1522 1523 1522 1522 1522 1522 1522 1521 1521 1520 1519 1519 1518 1517
1499 1500 1501 1503 1504 1505 1506 1507 1508 1508 1509 1510 1511 1512 1513 1513 1514 1515 1516 1516 1517 1517 1518 1518 1518 1519 1519 1519 1519 1520 1520 1520 1520 1520 1519 1519 1519 1518 1517 1517 1516 1515 1514
1497 1499 1499 1501 1502 1503 1504 1505 1506 1506 1507 1508 1508 1509 1510 1511 1511 1513 1513 1514 1514 1515 1516 1516 1516 1516 1516 1517 1517 1517 1517 1517 1517 1517 1516 1515 1515 1515 1514 1514 1513 1512 1511